Regional Weather Roundup
Issued by NWS

Home | Current Version | Previous Version | Text Only | Print | Product List | Glossary On
Versions: 1 2 3 4 5 6 7 8 9 10 11 12 13 14 15 16 17 18 19 20 21 22 23 24 25 26 27 28 29 30 31 32 33 34 35 36 37 38 39 40 41 42 43 44 45 46 47 48 49 50
000
ASUS44 KLIX 190310
RWRLA
LOUISIANA WEATHER ROUNDUP
NATIONAL WEATHER SERVICE NEW ORLEANS LA
1000 PM CDT THU SEP 18 2014

NOTE: "FAIR" INDICATES FEW OR NO CLOUDS BELOW 12,000 FEET WITH NO
      SIGNIFICANT WEATHER AND/OR OBSTRUCTIONS TO VISIBILITY.
      SKY/WX - SKY CONDITION AND SIGNIFICANT WEATHER.
      TMP - AIR TEMPERATURE.    DP   - DEWPOINT TEMPERATURE.
      RH  - RELATIVE HUMIDITY.  PRES - PRESSURE.
      HX  - HEAT INDEX.         WCI  - WIND CHILL INDEX.

*  THESE STATIONS ARE NOT NWS OR FAA STATIONS AND ARE NOT UNDER
   NWS QUALITY CONTROL.

LAZ040-048-061>063-065-066-069-190400-
SOUTHEAST LOUISIANA

CITY           SKY/WX    TMP DP  RH WIND       PRES   REMARKS
N.O. AUDUBON     N/A     82  70  66 MISG        N/A
N.O. INTL ARPT CLOUDY    79  69  71 S7        29.93R
N.O. LAKEFRONT CLOUDY    80  71  74 SE6       29.93R
N.O. DOWNTOWN* FAIR      81  66  61 SE5       29.93S
SLIDELL        CLOUDY    75  67  76 E3        29.94R
BATON ROUGE    LGT RAIN  72  70  93 NE5       29.94R
BOOTHVILLE     CLOUDY    79  76  90 S5        29.93S
BELLE CHASSE   CLOUDY    76  71  85 CALM      29.92R
BOGALUSA*      FAIR      76  66  71 SW8       29.98R
GALLIANO*      NOT AVBL
NEW ROADS*     LGT RAIN  71  70  96 CALM      29.93R
GONZALES*      CLOUDY    73  73 100 CALM      29.93R
HAMMOND*       DRIZZLE   77  72  83 NE6       29.97R
HOUMA*         RAIN      74  69  85 N5        29.92S
PORT FOURCHON* CLOUDY    81  75  83 CALM      29.95S

$$

LAZ041-044-053-054-190400-
SOUTHWEST LOUISIANA

CITY           SKY/WX    TMP DP  RH WIND       PRES   REMARKS
LAKE CHARLES   CLOUDY    75  73  93 NE6       29.89S
LAFAYETTE      CLOUDY    74  73  97 CALM      29.92R
PATTERSON      CLOUDY    73  72  94 SE3       29.94S
SALT POINT       N/A     77  74  90 E3        29.90S
NEW IBERIA     RAIN      75  73  93 S3        29.92S
CHENAULT AIRPK PTCLDY    75  75 100 NE7       29.91R

$$

LAZ027-028-190400-
CENTRAL LOUISIANA

CITY           SKY/WX    TMP DP  RH WIND       PRES   REMARKS
FORT POLK      CLOUDY    74  73  97 CALM      29.92R
ALEXANDRIA INT CLOUDY    75  74  96 CALM      29.91R
ALEXANDRIA     CLOUDY    76  74  93 CALM      29.93R

$$

LAZ001-002-190400-
NORTHWEST LOUISIANA

CITY           SKY/WX    TMP DP  RH WIND       PRES   REMARKS
SHREVEPORT     MOCLDY    76  69  79 W5        29.93R
BARKSDALE AFB  MOCLDY    78  69  73 W3        29.93R
DTN SHREVEPORT MOCLDY    78  69  73 SW3       29.93R

$$

LAZ014-016-190400-
NORTHEAST LOUISIANA

CITY           SKY/WX    TMP DP  RH WIND       PRES   REMARKS
MONROE         MOCLDY    74  72  93 CALM      29.94R
TALLULAH       CLOUDY    73  66  78 E7        29.95R

$$




USA.gov is the U.S. government's official web portal to all federal, state and local government web resources and services.